When you browse on this site, cookies collect data to enhance your experience and personalize the content and advertising you see.
Visit our Privacy Policy to learn more. By continuing to use the site, you agree to this use of cookies and data.
  • In Hungary
  • List of Countries
  • For 7 days
  • Water Temperature
  • Satellite Maps
  • Weather Map
  • News
  • Weather Widgets
  • user-avatar
    Login

    Hourly Weather Alak

    Today, 23 January, Wednesday

    Time Temperature Precipitation Wind Pressure Humidity
    00:00 +22°C° 0 mm 5 mps 758 mmHg 26%
    01:00 +22°C° 0 mm 5 mps 758 mmHg 27%
    02:00 +21°C° 0 mm 5 mps 758 mmHg 27%
    03:00 +21°C° 0 mm 5 mps 758 mmHg 28%
    04:00 +20°C° 0 mm 4 mps 758 mmHg 29%
    05:00 +20°C° 0 mm 4 mps 758 mmHg 29%
    06:00 +20°C° 0 mm 5 mps 758 mmHg 28%
    07:00 +21°C° 0 mm 5 mps 758 mmHg 26%
    08:00 +22°C° 0 mm 5 mps 758 mmHg 25%
    09:00 +25°C° 0 mm 5 mps 758 mmHg 22%
    10:00 +27°C° 0 mm 5 mps 758 mmHg 19%
    11:00 +29°C° 0 mm 4 mps 758 mmHg 16%
    12:00 +30°C° 0 mm 3 mps 758 mmHg 15%
    13:00 +31°C° 0 mm 3 mps 757 mmHg 13%
    14:00 +32°C° 0 mm 2 mps 756 mmHg 12%
    15:00 +31°C° 0 mm 2 mps 756 mmHg 12%
    16:00 +31°C° 0 mm 2 mps 756 mmHg 11%
    17:00 +31°C° 0 mm 3 mps 756 mmHg 11%
    18:00 +29°C° 0 mm 3 mps 756 mmHg 12%
    19:00 +27°C° 0 mm 4 mps 756 mmHg 14%
    20:00 +26°C° 0 mm 4 mps 757 mmHg 15%
    21:00 +25°C° 0 mm 4 mps 757 mmHg 15%
    22:00 +23°C° 0 mm 4 mps 757 mmHg 15%
    23:00 +23°C° 0 mm 4 mps 757 mmHg 15%

    Tomorrow, 24 January, Thursday

    Time Temperature Precipitation Wind Pressure Humidity
    00:00 +22°C° 0 mm 4 mps 757 mmHg 15%
    01:00 +22°C° 0 mm 4 mps 757 mmHg 16%
    02:00 +21°C° 0 mm 3 mps 756 mmHg 16%
    03:00 +21°C° 0 mm 3 mps 756 mmHg 16%
    04:00 +20°C° 0 mm 3 mps 756 mmHg 17%
    05:00 +20°C° 0 mm 3 mps 756 mmHg 17%
    06:00 +20°C° 0 mm 3 mps 756 mmHg 16%
    07:00 +21°C° 0 mm 3 mps 756 mmHg 16%
    08:00 +22°C° 0 mm 3 mps 757 mmHg 15%
    09:00 +25°C° 0 mm 3 mps 757 mmHg 13%
    10:00 +27°C° 0 mm 2 mps 757 mmHg 12%
    11:00 +29°C° 0 mm 2 mps 757 mmHg 10%
    12:00 +30°C° 0 mm 2 mps 756 mmHg 9%
    13:00 +31°C° 0 mm 1 mps 755 mmHg 9%
    14:00 +32°C° 0 mm 1 mps 754 mmHg 8%
    15:00 +32°C° 0 mm 1 mps 754 mmHg 8%
    16:00 +32°C° 0 mm 2 mps 754 mmHg 8%
    17:00 +31°C° 0 mm 2 mps 754 mmHg 8%
    18:00 +30°C° 0 mm 3 mps 755 mmHg 9%
    19:00 +28°C° 0 mm 3 mps 755 mmHg 10%
    20:00 +27°C° 0 mm 3 mps 755 mmHg 11%
    21:00 +26°C° 0 mm 3 mps 756 mmHg 12%
    22:00 +26°C° 0 mm 3 mps 756 mmHg 12%
    23:00 +25°C° 0 mm 3 mps 756 mmHg 13%

    Day after tomorrow, 25 January, Friday

    Time Temperature Precipitation Wind Pressure Humidity
    00:00 +25°C° 0 mm 3 mps 756 mmHg 13%
    01:00 +24°C° 0 mm 3 mps 756 mmHg 14%
    02:00 +22°C° 0 mm 3 mps 755 mmHg 15%
    03:00 +21°C° 0 mm 3 mps 755 mmHg 15%
    04:00 +21°C° 0 mm 3 mps 755 mmHg 16%
    05:00 +20°C° 0 mm 3 mps 755 mmHg 16%
    06:00 +21°C° 0 mm 2 mps 756 mmHg 15%
    07:00 +21°C° 0 mm 2 mps 756 mmHg 14%
    08:00 +23°C° 0 mm 2 mps 757 mmHg 13%
    09:00 +25°C° 0 mm 2 mps 757 mmHg 12%
    10:00 +27°C° 0 mm 1 mps 757 mmHg 11%
    11:00 +29°C° 0 mm 1 mps 757 mmHg 9%
    12:00 +30°C° 0 mm 1 mps 756 mmHg 9%
    13:00 +31°C° 0 mm 1 mps 755 mmHg 8%
    14:00 +32°C° 0 mm 1 mps 754 mmHg 8%
    15:00 +32°C° 0 mm 2 mps 754 mmHg 8%
    16:00 +32°C° 0 mm 2 mps 754 mmHg 8%
    17:00 +33°C° 0 mm 3 mps 754 mmHg 8%
    18:00 +30°C° 0 mm 3 mps 755 mmHg 9%
    19:00 +28°C° 0 mm 3 mps 755 mmHg 10%
    20:00 +26°C° 0 mm 3 mps 756 mmHg 11%
    21:00 +26°C° 0 mm 3 mps 756 mmHg 11%
    22:00 +25°C° 0 mm 3 mps 756 mmHg 11%
    23:00 +24°C° 0 mm 3 mps 756 mmHg 12%

    26 January, Saturday

    Time Temperature Precipitation Wind Pressure Humidity
    00:00 +24°C° 0 mm 3 mps 756 mmHg 12%
    01:00 +22°C° 0 mm 3 mps 756 mmHg 12%
    02:00 +22°C° 0 mm 3 mps 756 mmHg 12%
    03:00 +21°C° 0 mm 3 mps 756 mmHg 13%
    04:00 +20°C° 0 mm 3 mps 756 mmHg 13%
    05:00 +20°C° 0 mm 2 mps 756 mmHg 14%
    06:00 +21°C° 0 mm 2 mps 756 mmHg 13%
    07:00 +23°C° 0 mm 2 mps 757 mmHg 12%
    08:00 +24°C° 0 mm 2 mps 757 mmHg 12%
    09:00 +26°C° 0 mm 2 mps 757 mmHg 10%
    10:00 +29°C° 0 mm 2 mps 757 mmHg 9%
    11:00 +31°C° 0 mm 2 mps 757 mmHg 8%
    12:00 +32°C° 0 mm 2 mps 756 mmHg 7%
    13:00 +33°C° 0 mm 1 mps 756 mmHg 7%
    14:00 +34°C° 0 mm 1 mps 755 mmHg 7%
    15:00 +34°C° 0 mm 1 mps 755 mmHg 7%
    16:00 +35°C° 0 mm 2 mps 755 mmHg 7%
    17:00 +35°C° 0 mm 2 mps 755 mmHg 7%
    18:00 +33°C° 0 mm 3 mps 756 mmHg 7%
    19:00 +30°C° 0 mm 3 mps 756 mmHg 8%
    20:00 +28°C° 0 mm 4 mps 757 mmHg 9%
    21:00 +27°C° 0 mm 4 mps 757 mmHg 9%
    22:00 +27°C° 0 mm 4 mps 757 mmHg 9%
    23:00 +26°C° 0 mm 4 mps 757 mmHg 9%

    27 January, Sunday

    Time Temperature Precipitation Wind Pressure Humidity
    00:00 +25°C° 0 mm 4 mps 757 mmHg 10%
    01:00 +25°C° 0 mm 4 mps 756 mmHg 10%
    02:00 +23°C° 0 mm 4 mps 756 mmHg 10%
    03:00 +24°C° 0 mm 3 mps 756 mmHg 10%
    04:00 +22°C° 0 mm 3 mps 756 mmHg 11%
    05:00 +22°C° 0 mm 3 mps 756 mmHg 11%
    06:00 +24°C° 0 mm 3 mps 757 mmHg 10%
    07:00 +25°C° 0 mm 3 mps 757 mmHg 10%
    08:00 +25°C° 0 mm 3 mps 758 mmHg 9%
    09:00 +28°C° 0 mm 4 mps 758 mmHg 8%
    10:00 +30°C° 0 mm 4 mps 758 mmHg 7%
    11:00 +33°C° 0 mm 4 mps 758 mmHg 6%
    12:00 +34°C° 0 mm 3 mps 757 mmHg 5%
    13:00 +35°C° 0 mm 3 mps 756 mmHg 5%
    14:00 +36°C° 0 mm 3 mps 755 mmHg 5%
    15:00 +36°C° 0 mm 3 mps 756 mmHg 5%
    16:00 +35°C° 0 mm 4 mps 756 mmHg 5%
    17:00 +35°C° 0 mm 4 mps 756 mmHg 5%
    18:00 +34°C° 0 mm 4 mps 756 mmHg 6%
    19:00 +32°C° 0 mm 4 mps 757 mmHg 6%
    20:00 +30°C° 0 mm 4 mps 757 mmHg 7%
    21:00 +29°C° 0 mm 4 mps 757 mmHg 7%
    22:00 +29°C° 0 mm 4 mps 757 mmHg 8%
    23:00 +28°C° 0 mm 4 mps 757 mmHg 8%

    28 January, Monday

    Time Temperature Precipitation Wind Pressure Humidity
    00:00 +27°C° 0 mm 4 mps 757 mmHg 9%
    01:00 +27°C° 0 mm 5 mps 757 mmHg 10%
    02:00 +26°C° 0 mm 5 mps 756 mmHg 11%
    03:00 +26°C° 0 mm 5 mps 756 mmHg 11%
    04:00 +26°C° 0 mm 5 mps 756 mmHg 11%
    05:00 +26°C° 0 mm 5 mps 756 mmHg 12%
    06:00 +26°C° 0 mm 5 mps 756 mmHg 11%
    07:00 +26°C° 0 mm 5 mps 757 mmHg 11%
    08:00 +27°C° 0 mm 6 mps 757 mmHg 10%
    09:00 +28°C° 0 mm 5 mps 757 mmHg 9%
    10:00 +30°C° 0 mm 5 mps 757 mmHg 8%
    11:00 +33°C° 0 mm 5 mps 757 mmHg 6%
    12:00 +34°C° 0 mm 5 mps 757 mmHg 6%
    13:00 +35°C° 0 mm 5 mps 756 mmHg 6%
    14:00 +36°C° 0 mm 5 mps 755 mmHg 6%
    15:00 +35°C° 0 mm 5 mps 755 mmHg 6%
    16:00 +35°C° 0 mm 4 mps 755 mmHg 6%
    17:00 +35°C° 0 mm 4 mps 755 mmHg 6%
    18:00 +34°C° 0 mm 4 mps 755 mmHg 7%
    19:00 +32°C° 0 mm 5 mps 756 mmHg 7%
    20:00 +30°C° 0 mm 5 mps 756 mmHg 8%
    21:00 +29°C° 0 mm 4 mps 756 mmHg 9%
    22:00 +28°C° 0 mm 4 mps 756 mmHg 9%
    23:00 +28°C° 0 mm 4 mps 756 mmHg 10%
    Show more